CW3783 Weather Reports


Display with metric or nautical units.
time (UTC)temp
F
wind
direction
speed
MPH
gust
MPH
rain 1hr
in
rain 24hr
in
rain mn
in
humidity
%
barometer
mb
20260502180304 61 8 7.0 15.0 0.00 0.00 0.00 43 1011.6
20260502170315 58 45 5.0 9.0 0.00 0.00 0.00 41 1012.0
20260502164303 58 340 8.0 13.0 0.00 0.00 0.00 45 1012.2
20260502163803 58 15 6.0 12.0 0.00 0.00 0.00 45 1012.1
20260502163304 58 340 7.0 15.0 0.00 0.00 0.00 44 1012.1
20260502162804 59 0 10.0 17.0 0.00 0.00 0.00 44 1012.1
20260502162305 59 300 4.0 10.0 0.00 0.00 0.00 44 1012.2
20260502161804 58 287 6.0 13.0 0.00 0.00 0.00 45 1012.3
20260502161303 58 7 7.0 12.0 0.00 0.00 0.00 45 1012.3
20260502160804 58 16 2.0 6.0 0.00 0.00 0.00 45 1012.2
20260502160303 58 15 4.0 12.0 0.00 0.00 0.00 45 1012.3
20260502152305 57 9 7.0 12.0 0.00 0.00 0.00 48 1012.7
20260502151303 57 0 6.0 12.0 0.00 0.00 0.00 48 1012.6
20260502150804 56 317 6.0 13.0 0.00 0.00 0.00 52 1012.6
20260502150303 56 0 3.0 8.0 0.00 0.00 0.00 51 1012.5
20260502130304 51 3 10.0 17.0 0.00 0.00 0.00 63 1012.5
20260502123804 50 0 10.0 16.0 0.00 0.00 0.00 65 1012.5
20260502123304 51 358 8.0 14.0 0.00 0.00 0.00 67 1012.6
20260502122804 50 4 9.0 14.0 0.00 0.00 0.00 68 1012.5
20260502122306 50 353 10.0 16.0 0.00 0.00 0.00 68 1012.5
20260502121804 50 341 12.0 18.0 0.00 0.00 0.00 68 1012.5
20260502121304 50 2 11.0 20.0 0.00 0.00 0.00 69 1012.5
20260502120804 50 9 6.0 12.0 0.00 0.00 0.00 69 1012.5
20260502120304 49 0 7.0 12.0 0.00 0.00 0.00 70 1012.4
20260502115804 49 4 7.0 16.0 0.00 0.00 0.00 70 1012.3
20260502114804 49 335 10.0 13.0 0.00 0.00 0.00 70 1012.5
20260502113803 49 335 8.0 15.0 0.00 0.00 0.00 70 1012.4
20260502113303 49 341 4.0 10.0 0.00 0.00 0.00 70 1012.4
20260502112803 49 357 6.0 12.0 0.00 0.00 0.00 70 1012.4
20260502112305 49 331 5.0 12.0 0.00 0.00 0.00 70 1012.4
20260502111804 49 331 6.0 12.0 0.00 0.00 0.00 70 1012.4
20260502111304 48 334 6.0 13.0 0.00 0.00 0.00 70 1012.3
20260502110304 48 355 5.0 12.0 0.00 0.00 0.00 70 1012.2
20260502105804 49 358 3.0 10.0 0.00 0.00 0.00 70 1012.2
20260502105306 49 333 7.0 12.0 0.00 0.00 0.00 70 1012.1
20260502104804 49 327 6.0 14.0 0.00 0.00 0.00 70 1012.1
20260502103804 49 349 9.0 13.0 0.00 0.00 0.00 70 1012.0
20260502103304 49 3 9.0 16.0 0.00 0.00 0.00 69 1011.8
20260502102804 49 352 6.0 12.0 0.00 0.00 0.00 69 1011.8
20260502102306 49 330 6.0 12.0 0.00 0.00 0.00 69 1011.8
20260502101804 49 340 4.0 7.0 0.00 0.00 0.00 68 1011.8
20260502101304 49 341 3.0 7.0 0.00 0.00 0.00 68 1011.7
20260502100804 50 326 7.0 13.0 0.00 0.00 0.00 68 1011.6
20260502100303 50 316 8.0 12.0 0.00 0.00 0.00 68 1011.4
20260502091303 51 332 8.0 13.0 0.00 0.00 0.00 67 1010.8
20260502090804 51 322 4.0 15.0 0.00 0.00 0.00 67 1010.9
20260502090303 52 323 11.0 16.0 0.00 0.00 0.00 67 1011.0
20260502071304 53 326 3.0 7.0 0.00 0.00 0.00 74 1010.6
20260502070804 53 338 5.0 9.0 0.00 0.00 0.00 73 1010.4
20260502065803 54 1 6.0 10.0 0.00 0.00 0.00 72 1010.3
20260502065306 54 345 6.0 12.0 0.00 0.00 0.00 72 1010.3
20260502064803 54 347 6.0 12.0 0.00 0.00 0.00 71 1010.4
20260502064304 54 351 6.0 13.0 0.00 0.00 0.00 71 1010.4
20260502063304 54 295 5.0 9.0 0.00 0.00 0.00 70 1010.8
20260502062306 55 336 9.0 12.0 0.00 0.00 0.00 70 1010.8
20260502060803 55 343 7.0 12.0 0.00 0.00 0.00 71 1011.1
20260502055305 54 336 5.0 8.0 0.00 0.00 0.00 72 1010.9
20260502054803 54 350 5.0 9.0 0.00 0.00 0.00 72 1011.0
20260502053803 54 358 3.0 7.0 0.00 0.00 0.00 73 1010.9
20260502052306 55 325 3.0 7.0 0.00 0.00 0.00 74 1011.1
20260502051304 55 220 2.0 3.0 0.00 0.00 0.00 75 1011.2
20260502050804 55 220 1.0 3.0 0.00 0.00 0.00 74 1011.2
20260502050303 55 220 2.0 3.0 0.00 0.00 0.00 74 1011.1
20260502045803 55 220 2.0 3.0 0.00 0.00 0.00 74 1011.1
20260502045306 55 220 1.0 3.0 0.00 0.00 0.00 74 1011.1
20260502044803 55 212 2.0 3.0 0.00 0.00 0.00 73 1011.1
20260502043803 55 206 1.0 3.0 0.00 0.00 0.00 73 1011.0
20260502043303 55 230 1.0 3.0 0.00 0.00 0.00 72 1011.0
20260502042804 55 230 1.0 3.0 0.00 0.00 0.00 72 1011.0
20260502042306 56 241 0.0 3.0 0.00 0.00 0.00 72 1011.1
20260502041803 56 291 3.0 6.0 0.00 0.00 0.00 72 1011.1
20260502041303 56 319 3.0 3.0 0.00 0.00 0.00 72 1010.9
20260502040803 56 233 3.0 6.0 0.00 0.00 0.00 71 1010.9
20260502040304 56 268 1.0 5.0 0.00 0.00 0.00 70 1010.8
20260502035803 56 299 1.0 2.0 0.00 0.00 0.00 71 1010.7
20260502035306 56 303 1.0 5.0 0.00 0.00 0.00 70 1010.9
20260502034803 56 238 3.0 7.0 0.00 0.00 0.00 70 1010.9
20260502034303 57 219 2.0 7.0 0.00 0.00 0.00 69 1010.9
20260502033804 57 284 3.0 8.0 0.00 0.00 0.00 69 1010.6
20260502033304 57 245 1.0 7.0 0.00 0.00 0.00 69 1010.6
20260502032804 57 222 2.0 3.0 0.00 0.00 0.00 69 1010.4
20260502032306 57 191 1.0 2.0 0.00 0.00 0.00 68 1010.4
20260502031803 57 191 2.0 5.0 0.00 0.00 0.00 68 1010.4
20260502031303 57 185 2.0 3.0 0.00 0.00 0.00 68 1010.3
20260502030804 57 187 3.0 3.0 0.00 0.00 0.00 68 1010.2
20260502030303 57 203 2.0 5.0 0.00 0.00 0.00 67 1010.1
20260502025804 57 189 2.0 3.0 0.00 0.00 0.00 67 1010.0
20260502025306 57 166 2.0 3.0 0.00 0.00 0.00 67 1010.0
20260502024804 57 175 2.0 7.0 0.00 0.00 0.00 66 1010.1
20260502023804 57 194 2.0 3.0 0.00 0.00 0.00 66 1010.1
20260502023304 57 180 2.0 5.0 0.00 0.00 0.00 65 1010.3
20260502022804 57 184 3.0 6.0 0.00 0.00 0.00 65 1010.2
20260502021804 57 199 3.0 7.0 0.00 0.00 0.00 64 1010.4
20260502021303 57 204 3.0 6.0 0.00 0.00 0.00 64 1010.3
20260502020304 57 194 3.0 6.0 0.00 0.00 0.00 62 1010.3
20260502015804 57 176 3.0 7.0 0.00 0.00 0.00 62 1010.3
20260502015305 57 182 3.0 6.0 0.00 0.00 0.00 61 1010.2
20260502014304 57 179 4.0 8.0 0.00 0.00 0.00 60 1010.2
20260502013804 57 172 4.0 8.0 0.00 0.00 0.00 60 1010.0
20260502012803 58 192 4.0 8.0 0.00 0.00 0.00 59 1010.0
20260502012306 58 172 5.0 8.0 0.00 0.00 0.00 58 1009.9
20260502011804 58 190 4.0 10.0 0.00 0.00 0.00 58 1010.0
20260502011303 58 178 5.0 12.0 0.00 0.00 0.00 57 1009.9
20260502010804 58 186 6.0 10.0 0.00 0.00 0.00 57 1009.8
20260502010304 58 167 8.0 13.0 0.00 0.00 0.00 56 1009.7
20260502005803 58 168 6.0 12.0 0.00 0.00 0.00 55 1009.6
20260502005306 59 183 5.0 9.0 0.00 0.00 0.00 55 1009.6
20260502004804 59 187 5.0 12.0 0.00 0.00 0.00 54 1009.6
20260502004303 59 196 5.0 10.0 0.00 0.00 0.00 54 1009.6
20260502003803 59 192 5.0 12.0 0.00 0.00 0.00 54 1009.5
20260502003304 59 170 3.0 6.0 0.00 0.00 0.00 54 1009.4
20260502002803 59 157 5.0 9.0 0.00 0.00 0.00 53 1009.4
20260502002305 59 172 5.0 10.0 0.00 0.00 0.00 53 1009.2
20260502001803 59 177 3.0 8.0 0.00 0.00 0.00 53 1009.1
20260502001304 59 148 7.0 10.0 0.00 0.00 0.00 52 1009.1
20260502000804 60 169 5.0 10.0 0.00 0.00 0.00 52 1009.1
20260502000304 60 174 6.0 13.0 0.00 0.00 0.00 52 1009.0
20260501235804 60 167 6.0 12.0 0.00 0.00 0.00 51 1008.9
20260501234804 61 159 3.0 10.0 0.00 0.00 0.00 50 1008.9
20260501234304 61 131 6.0 9.0 0.00 0.00 0.00 49 1008.8
20260501233804 61 146 5.0 7.0 0.00 0.00 0.00 48 1008.7
20260501233304 62 171 6.0 16.0 0.00 0.00 0.00 48 1008.8
20260501232804 62 168 7.0 12.0 0.00 0.00 0.00 47 1008.9
20260501232306 62 169 5.0 12.0 0.00 0.00 0.00 47 1008.8
20260501231804 63 150 5.0 8.0 0.00 0.00 0.00 47 1008.8
20260501230304 64 183 6.0 12.0 0.00 0.00 0.00 45 1008.7
20260501225804 64 167 6.0 13.0 0.00 0.00 0.00 45 1008.8
20260501225306 64 182 5.0 12.0 0.00 0.00 0.00 44 1008.7
20260501224804 65 174 3.0 6.0 0.00 0.00 0.00 42 1008.7
20260501224304 65 163 3.0 9.0 0.00 0.00 0.00 40 1008.6
20260501223303 65 166 6.0 12.0 0.00 0.00 0.00 38 1008.5
20260501222804 65 188 6.0 16.0 0.00 0.00 0.00 36 1008.5
20260501222305 66 183 9.0 14.0 0.00 0.00 0.00 37 1008.6
20260501221804 66 210 9.0 14.0 0.00 0.00 0.00 36 1008.7
20260501221304 66 181 9.0 15.0 0.00 0.00 0.00 36 1008.8
20260501220804 66 169 9.0 14.0 0.00 0.00 0.00 36 1008.8
20260501220304 67 192 10.0 15.0 0.00 0.00 0.00 35 1008.7
20260501215305 67 161 7.0 15.0 0.00 0.00 0.00 36 1008.9
20260501214804 68 194 7.0 13.0 0.00 0.00 0.00 38 1008.8
20260501214303 68 150 7.0 12.0 0.00 0.00 0.00 39 1008.8
20260501212306 68 122 6.0 12.0 0.00 0.00 0.00 40 1009.0
20260501211803 68 185 6.0 14.0 0.00 0.00 0.00 41 1008.9
20260501211303 67 158 5.0 12.0 0.00 0.00 0.00 41 1008.9
20260501210304 67 156 6.0 12.0 0.00 0.00 0.00 40 1008.9
20260501205804 67 163 9.0 16.0 0.00 0.00 0.00 40 1008.9
20260501205306 67 155 9.0 14.0 0.00 0.00 0.00 40 1008.8
20260501204803 67 179 5.0 10.0 0.00 0.00 0.00 38 1008.9
20260501204303 67 168 3.0 12.0 0.00 0.00 0.00 38 1009.0
20260501203803 68 227 5.0 12.0 0.00 0.00 0.00 38 1009.1
20260501203304 68 147 6.0 12.0 0.00 0.00 0.00 39 1009.1
20260501202804 68 207 2.0 15.0 0.00 0.00 0.00 36 1009.1
20260501202306 68 222 8.0 10.0 0.00 0.00 0.00 36 1009.3
20260501201303 68 259 5.0 12.0 0.00 0.00 0.00 35 1009.3
20260501200803 68 212 5.0 12.0 0.00 0.00 0.00 34 1009.5
20260501200303 68 240 6.0 15.0 0.00 0.00 0.00 36 1009.6
20260501195803 68 201 6.0 13.0 0.00 0.00 0.00 36 1009.7
20260501195305 68 161 5.0 12.0 0.00 0.00 0.00 36 1009.8
20260501194803 68 261 5.0 13.0 0.00 0.00 0.00 36 1009.9
20260501194303 68 285 5.0 12.0 0.00 0.00 0.00 37 1009.9
20260501193804 68 158 6.0 12.0 0.00 0.00 0.00 36 1010.0
20260501193304 68 223 8.0 14.0 0.00 0.00 0.00 35 1010.2
20260501192306 68 196 6.0 12.0 0.00 0.00 0.00 36 1010.1
20260501191805 68 281 7.0 13.0 0.00 0.00 0.00 37 1010.2
20260501190804 68 165 6.0 12.0 0.00 0.00 0.00 36 1010.3
20260501190304 67 281 4.0 9.0 0.00 0.00 0.00 36 1010.3
20260501185804 67 273 3.0 9.0 0.00 0.00 0.00 37 1010.4
20260501185306 67 202 3.0 9.0 0.00 0.00 0.00 38 1010.6
20260501184804 67 262 6.0 16.0 0.00 0.00 0.00 39 1010.6
20260501184304 67 208 7.0 15.0 0.00 0.00 0.00 38 1010.7
20260501183803 67 176 9.0 14.0 0.00 0.00 0.00 38 1010.8
20260501183303 66 175 6.0 12.0 0.00 0.00 0.00 39 1010.9
20260501182803 66 220 6.0 14.0 0.00 0.00 0.00 39 1010.9
20260501182306 66 237 6.0 13.0 0.00 0.00 0.00 39 1011.1
20260501181804 66 210 7.0 12.0 0.00 0.00 0.00 40 1011.1
20260501181304 66 196 9.0 13.0 0.00 0.00 0.00 39 1011.1
20260501180804 65 207 5.0 12.0 0.00 0.00 0.00 40 1011.2